Regional Weather Roundup
Issued by NWS Northern Indiana

Home | Current Version | Previous Version | Graphics & Text | Print | Product List | Glossary On
Versions: 1 2 3 4 5 6 7 8 9 10 11 12 13 14 15 16 17 18 19 20 21 22 23 24 25 26 27 28 29 30 31 32 33 34 35 36 37 38 39 40 41 42 43 44 45 46 47 48 49 50
000
ASUS43 KIWX 200400
RWRIWX

KIWX WEATHER ROUNDUP
NATIONAL WEATHER SERVICE NORTHERN INDIANA
1100 PM EST THU JAN 19 2017

NOTE: "FAIR" INDICATES FEW OR NO CLOUDS BELOW 12,000 FEET WITH NO
SIGNIFICANT WEATHER AND/OR OBSTRUCTIONS TO VISIBILITY.

* THESE STATIONS ARE NOT UNDER NWS QUALITY CONTROL. THEY ALSO MAY NOT
  REPORT WEATHER SUCH AS PRECIPITATION OR FOG.

INZ001>027-200500-
NORTHERN INDIANA

CITY           SKY/WX    TMP DP  RH WIND       PRES   REMARKS
GARY*          LGT RAIN  39  37  93 NE7       29.77F
VALPARAISO     LGT RAIN  39  38  96 E13       29.75F FOG
KNOX*          CLOUDY    37  30  75 E6        29.75F
SOUTH BEND     LGT RAIN  37  36  96 E9        29.79F FOG
GOSHEN         LGT RAIN  37  34  89 E9        29.80F FOG
FORT WAYNE     LGT RAIN  41  37  86 E12       29.81F FOG
PERU/GRISSOM   LGT RAIN  42  42 100 E14       29.73F FOG

$$
INZ028>050-200500-
CENTRAL INDIANA

CITY           SKY/WX    TMP DP  RH WIND       PRES   REMARKS
LAFAYETTE      LGT RAIN  42  42 100 E9        29.71F FOG
KOKOMO*        RAIN      41  41 100 E12       29.75F FOG
MUNCIE*        RAIN      44  41  89 E13       29.75F FOG
INDIANAPOLIS   HVY RAIN  44  43  96 E9        29.71F FOG

$$
MIZ043>046-050>051-056>058-064>065-071>073-077>080-200500-
SOUTHWEST LOWER MICHIGAN

CITY           SKY/WX    TMP DP  RH WIND       PRES   REMARKS
BATTLE CREEK   CLOUDY    36  34  92 E5        29.85F
BENTON HARBOR  LGT RAIN  39  35  86 E8        29.80F FOG
COLDWATER*     CLOUDY    37  37 100 E9        29.83F FOG
HILLSDALE*     CLOUDY    34  32  93 E6        29.84F FOG     WCI  29
HOLLAND        CLOUDY    38  34  85 E7        29.83F
GRAND RAPIDS   CLOUDY    36  32  85 E6        29.85F
KALAMAZOO      CLOUDY    37  33  85 E5        29.84F FOG
STURGIS*       CLOUDY    36  35  95 E9        29.81F FOG
THREE RIVERS*  DRIZZLE   36  34  92 E6        29.83F

$$
OHZ001>008-015>018-024>025-200500-
NORTHWEST OHIO

CITY           SKY/WX    TMP DP  RH WIND       PRES   REMARKS
DEFIANCE       MOCLDY    36  34  92 NE7       29.84F
FINDLAY        PTCLDY    39  34  82 E8        29.83F
TOLEDO EXPRESS CLOUDY    36  36 100 E9        29.87F
TOLEDO METCALF CLOUDY    35  35 100 NE8       29.88F WCI  29
LIMA           CLOUDY    40  38  93 SE13      29.81F

$$
AND FOR LAKE MICHIGAN COASTAL AND OPEN LAKE BUOY OBSERVATIONS

STATION/POSITION TEMP    WIND        PRES    VSBY  WAVE
                 AIR SEA DIR/SP/G                  HT/PER
                 (F)     (DEG/KT/KT) (MB)    (MI)  (FT/S)
CALUMET HARBOR    35      50/  4/  6 1008.0F
MICHIGAN CITY     38      50/  6/  7   N/A
BURNS HARBOR      35      50/  7/  8 1008.8F

$$
&&



USA.gov is the U.S. government's official web portal to all federal, state and local government web resources and services.